• In Belarus
  • List of Countries
  • For 7 days
  • Water Temperature
  • Weather Map
  • Weather Widgets
  • user-avatar
    Login

    Hourly Weather Klachi

    Today, 3 June, Wednesday

    Time Temperature Precipitation Wind Pressure Humidity
    00:00 +8°C° 0 mm 2 mps 751 mmHg 88%
    01:00 +8°C° 0 mm 3 mps 751 mmHg 90%
    02:00 +7°C° 0 mm 3 mps 752 mmHg 91%
    03:00 +7°C° 0 mm 3 mps 752 mmHg 93%
    04:00 +7°C° 0 mm 4 mps 752 mmHg 89%
    05:00 +8°C° 0 mm 4 mps 752 mmHg 85%
    06:00 +10°C° 0 mm 4 mps 751 mmHg 82%
    07:00 +12°C° 0 mm 5 mps 751 mmHg 78%
    08:00 +13°C° 0 mm 5 mps 751 mmHg 73%
    09:00 +14°C° 0 mm 5 mps 751 mmHg 69%
    10:00 +15°C° 0 mm 5 mps 751 mmHg 67%
    11:00 +16°C° 0 mm 5 mps 751 mmHg 65%
    12:00 +17°C° 0 mm 6 mps 751 mmHg 62%
    13:00 +17°C° 0 mm 5 mps 751 mmHg 63%
    14:00 +19°C° 0 mm 5 mps 751 mmHg 63%
    15:00 +19°C° 0 mm 5 mps 751 mmHg 63%
    16:00 +18°C° 0 mm 4 mps 751 mmHg 67%
    17:00 +18°C° 0 mm 4 mps 751 mmHg 71%
    18:00 +17°C° 0 mm 3 mps 750 mmHg 75%
    19:00 +15°C° 0 mm 4 mps 750 mmHg 75%
    20:00 +14°C° 0 mm 4 mps 750 mmHg 74%
    21:00 +13°C° 0 mm 5 mps 750 mmHg 74%
    22:00 +13°C° 0 mm 5 mps 750 mmHg 74%
    23:00 +12°C° 0 mm 5 mps 750 mmHg 73%

    Tomorrow, 4 June, Thursday

    Time Temperature Precipitation Wind Pressure Humidity
    00:00 +11°C° 0 mm 6 mps 750 mmHg 73%
    01:00 +12°C° 0 mm 5 mps 750 mmHg 73%
    02:00 +10°C° 0 mm 5 mps 750 mmHg 73%
    03:00 +10°C° 0 mm 5 mps 750 mmHg 74%
    04:00 +10°C° 0 mm 6 mps 750 mmHg 73%
    05:00 +10°C° 0 mm 6 mps 750 mmHg 72%
    06:00 +11°C° 0 mm 6 mps 749 mmHg 72%
    07:00 +12°C° 0 mm 7 mps 749 mmHg 68%
    08:00 +15°C° 0 mm 7 mps 749 mmHg 65%
    09:00 +16°C° 0 mm 7 mps 749 mmHg 62%
    10:00 +17°C° 0 mm 7 mps 749 mmHg 63%
    11:00 +18°C° 0 mm 7 mps 749 mmHg 64%
    12:00 +20°C° 0 mm 8 mps 748 mmHg 66%
    13:00 +21°C° 0.1 mm 7 mps 748 mmHg 69%
    14:00 +21°C° 0.1 mm 7 mps 748 mmHg 73%
    15:00 +21°C° 0.1 mm 6 mps 748 mmHg 77%
    16:00 +19°C° 2.1 mm 6 mps 748 mmHg 82%
    17:00 +16°C° 2.1 mm 6 mps 748 mmHg 88%
    18:00 +15°C° 2.1 mm 6 mps 748 mmHg 94%
    19:00 +15°C° 2.7 mm 6 mps 748 mmHg 95%
    20:00 +14°C° 2.7 mm 6 mps 748 mmHg 95%
    21:00 +14°C° 2.7 mm 6 mps 749 mmHg 95%
    22:00 +14°C° 0.8 mm 6 mps 748 mmHg 95%
    23:00 +14°C° 0.8 mm 5 mps 748 mmHg 96%

    Day after tomorrow, 5 June, Friday

    Time Temperature Precipitation Wind Pressure Humidity
    00:00 +14°C° 0.8 mm 5 mps 748 mmHg 96%
    01:00 +14°C° 0.7 mm 5 mps 749 mmHg 96%
    02:00 +15°C° 0.7 mm 5 mps 749 mmHg 96%
    03:00 +15°C° 0.7 mm 4 mps 749 mmHg 96%
    04:00 +14°C° 0.2 mm 4 mps 749 mmHg 95%
    05:00 +14°C° 0.2 mm 4 mps 749 mmHg 95%
    06:00 +14°C° 0.2 mm 4 mps 749 mmHg 94%
    07:00 +14°C° 0.1 mm 5 mps 750 mmHg 92%
    08:00 +15°C° 0.1 mm 5 mps 750 mmHg 90%
    09:00 +15°C° 0.1 mm 6 mps 750 mmHg 88%
    10:00 +14°C° 0.7 mm 6 mps 750 mmHg 89%
    11:00 +14°C° 0.7 mm 6 mps 751 mmHg 89%
    12:00 +13°C° 0.7 mm 6 mps 751 mmHg 90%
    13:00 +13°C° 0.3 mm 6 mps 751 mmHg 91%
    14:00 +13°C° 0.3 mm 6 mps 751 mmHg 91%
    15:00 +11°C° 0.3 mm 6 mps 751 mmHg 91%
    16:00 +11°C° 0 mm 6 mps 751 mmHg 90%
    17:00 +11°C° 0 mm 6 mps 751 mmHg 90%
    18:00 +12°C° 0 mm 5 mps 751 mmHg 89%
    19:00 +12°C° 0 mm 5 mps 751 mmHg 88%
    20:00 +12°C° 0 mm 5 mps 751 mmHg 88%
    21:00 +12°C° 0 mm 5 mps 751 mmHg 87%
    22:00 +12°C° 0 mm 5 mps 751 mmHg 87%
    23:00 +12°C° 0 mm 5 mps 751 mmHg 87%

    6 June, Saturday

    Time Temperature Precipitation Wind Pressure Humidity
    00:00 +12°C° 0 mm 4 mps 751 mmHg 88%
    01:00 +12°C° 0 mm 4 mps 751 mmHg 88%
    02:00 +12°C° 0 mm 4 mps 751 mmHg 88%
    03:00 +12°C° 0 mm 4 mps 752 mmHg 89%
    04:00 +12°C° 0 mm 4 mps 752 mmHg 88%
    05:00 +12°C° 0 mm 4 mps 752 mmHg 87%
    06:00 +13°C° 0 mm 4 mps 752 mmHg 86%
    07:00 +14°C° 0 mm 5 mps 752 mmHg 82%
    08:00 +15°C° 0 mm 5 mps 752 mmHg 79%
    09:00 +17°C° 0 mm 5 mps 753 mmHg 75%
    10:00 +17°C° 0 mm 5 mps 753 mmHg 74%
    11:00 +19°C° 0 mm 5 mps 753 mmHg 74%
    12:00 +19°C° 0 mm 5 mps 753 mmHg 73%
    13:00 +20°C° 0 mm 5 mps 753 mmHg 71%
    14:00 +21°C° 0 mm 5 mps 753 mmHg 69%
    15:00 +21°C° 0 mm 5 mps 753 mmHg 67%
    16:00 +21°C° 0 mm 5 mps 753 mmHg 70%
    17:00 +21°C° 0 mm 4 mps 753 mmHg 74%
    18:00 +20°C° 0 mm 3 mps 753 mmHg 77%
    19:00 +19°C° 0 mm 3 mps 753 mmHg 81%
    20:00 +17°C° 0 mm 3 mps 753 mmHg 85%
    21:00 +16°C° 0 mm 3 mps 754 mmHg 88%
    22:00 +14°C° 0 mm 3 mps 754 mmHg 88%
    23:00 +14°C° 0 mm 3 mps 754 mmHg 88%

    7 June, Sunday

    Time Temperature Precipitation Wind Pressure Humidity
    00:00 +13°C° 0 mm 3 mps 754 mmHg 88%
    01:00 +13°C° 0 mm 3 mps 754 mmHg 88%
    02:00 +12°C° 0 mm 3 mps 755 mmHg 88%
    03:00 +12°C° 0 mm 3 mps 755 mmHg 87%
    04:00 +13°C° 0 mm 3 mps 755 mmHg 85%
    05:00 +14°C° 0 mm 3 mps 755 mmHg 82%
    06:00 +15°C° 0 mm 4 mps 755 mmHg 80%
    07:00 +17°C° 0 mm 4 mps 755 mmHg 76%
    08:00 +19°C° 0 mm 4 mps 755 mmHg 73%
    09:00 +20°C° 0 mm 4 mps 755 mmHg 69%
    10:00 +21°C° 0 mm 4 mps 756 mmHg 66%
    11:00 +22°C° 0 mm 5 mps 756 mmHg 63%
    12:00 +23°C° 0 mm 5 mps 756 mmHg 60%
    13:00 +23°C° 0 mm 5 mps 756 mmHg 59%
    14:00 +23°C° 0 mm 5 mps 756 mmHg 59%
    15:00 +23°C° 0 mm 4 mps 756 mmHg 58%
    16:00 +23°C° 0 mm 4 mps 756 mmHg 62%
    17:00 +22°C° 0 mm 3 mps 756 mmHg 66%
    18:00 +21°C° 0 mm 2 mps 756 mmHg 71%
    19:00 +20°C° 0 mm 2 mps 756 mmHg 72%
    20:00 +18°C° 0 mm 2 mps 756 mmHg 74%
    21:00 +17°C° 0 mm 3 mps 756 mmHg 75%
    22:00 +16°C° 0 mm 2 mps 757 mmHg 76%
    23:00 +15°C° 0 mm 2 mps 757 mmHg 76%

    8 June, Monday

    Time Temperature Precipitation Wind Pressure Humidity
    00:00 +15°C° 0 mm 2 mps 757 mmHg 77%
    01:00 +14°C° 0 mm 2 mps 757 mmHg 78%
    02:00 +14°C° 0 mm 2 mps 757 mmHg 79%
    03:00 +13°C° 0 mm 2 mps 758 mmHg 80%
    04:00 +15°C° 0 mm 2 mps 758 mmHg 78%
    05:00 +16°C° 0 mm 2 mps 758 mmHg 76%
    06:00 +17°C° 0 mm 2 mps 758 mmHg 75%
    07:00 +19°C° 0 mm 2 mps 758 mmHg 70%
    08:00 +20°C° 0 mm 2 mps 758 mmHg 65%
    09:00 +22°C° 0 mm 3 mps 759 mmHg 60%
    10:00 +22°C° 0 mm 3 mps 759 mmHg 57%
    11:00 +24°C° 0 mm 3 mps 759 mmHg 53%
    12:00 +25°C° 0 mm 3 mps 759 mmHg 50%
    13:00 +25°C° 0 mm 3 mps 758 mmHg 50%
    14:00 +25°C° 0 mm 3 mps 758 mmHg 51%
    15:00 +25°C° 0 mm 3 mps 758 mmHg 51%
    16:00 +25°C° 0 mm 2 mps 758 mmHg 55%
    17:00 +25°C° 0 mm 2 mps 758 mmHg 60%
    18:00 +24°C° 0 mm 1 mps 758 mmHg 64%
    19:00 +22°C° 0 mm 1 mps 758 mmHg 66%
    20:00 +21°C° 0 mm 1 mps 758 mmHg 69%
    21:00 +19°C° 0 mm 1 mps 758 mmHg 71%
    22:00 +18°C° 0 mm 1 mps 758 mmHg 73%
    23:00 +18°C° 0 mm 1 mps 759 mmHg 74%
    Show more